EW9485 Weather Reports


Display with metric or nautical units.
time (UTC)temp
F
wind
direction
speed
MPH
gust
MPH
rain 1hr
in
rain 24hr
in
rain mn
in
humidity
%
barometer
mb
20260510151047 78 49 5.0 11.0 0.00 0.45 0.00 77 1016.9
20260510150548 77 67 6.0 11.0 0.00 0.45 0.00 75 1017.0
20260510150052 77 5 5.0 11.0 0.00 0.45 0.00 75 1017.0
20260510145546 76 20 6.0 11.0 0.00 0.45 0.00 76 1017.0
20260510145046 77 52 7.0 11.0 0.00 0.45 0.00 76 1017.0
20260510144554 77 37 4.0 10.0 0.00 0.45 0.00 76 1017.0
20260510144047 76 32 5.0 11.0 0.00 0.45 0.00 77 1017.1
20260510143546 76 42 5.0 12.0 0.00 0.45 0.00 78 1017.2
20260510143058 76 44 7.0 12.0 0.00 0.45 0.00 77 1017.2
20260510142547 76 355 4.0 10.0 0.00 0.45 0.00 79 1017.2
20260510142047 75 81 6.0 10.0 0.00 0.45 0.00 80 1017.1
20260510141553 75 17 5.0 9.0 0.00 0.45 0.00 85 1017.1
20260510141047 74 45 4.0 9.0 0.00 0.45 0.00 87 1017.1
20260510140549 73 42 3.0 9.0 0.00 0.45 0.00 89 1017.1
20260510140057 73 49 4.0 9.0 0.00 0.45 0.00 89 1017.0
20260510135548 72 108 5.0 9.0 0.00 0.45 0.00 90 1016.8
20260510135047 72 61 2.0 8.0 0.00 0.45 0.00 91 1016.8
20260510134554 71 26 3.0 8.0 0.00 0.45 0.00 91 1016.8
20260510134046 71 13 2.0 9.0 0.00 0.45 0.00 92 1016.6
20260510133546 70 25 4.0 9.0 0.00 0.45 0.00 91 1016.6
20260510133059 70 27 4.0 6.0 0.00 0.45 0.00 92 1016.6
20260510132547 70 45 3.0 6.0 0.00 0.45 0.00 91 1016.5
20260510132051 69 82 2.0 6.0 0.00 0.45 0.00 92 1016.7
20260510131557 69 37 2.0 6.0 0.00 0.45 0.00 92 1016.7
20260510131047 69 29 3.0 5.0 0.00 0.45 0.00 91 1016.8
20260510130549 69 10 3.0 5.0 0.00 0.45 0.00 92 1017.0
20260510130054 68 0 2.0 5.0 0.00 0.45 0.00 91 1016.8
20260510125625 68 34 2.0 6.0 0.00 0.45 0.00 91 1016.7
20260510125047 68 48 1.0 6.0 0.00 0.45 0.00 91 1016.8
20260510124612 68 28 3.0 6.0 0.00 0.45 0.00 91 1016.5
20260510124049 68 47 2.0 6.0 0.00 0.45 0.00 92 1016.4
20260510123547 68 26 2.0 6.0 0.00 0.45 0.00 92 1016.3
20260510123056 68 41 1.0 5.0 0.00 0.45 0.00 91 1016.4
20260510122551 67 39 2.0 5.0 0.00 0.45 0.00 91 1016.4
20260510122047 67 48 2.0 4.0 0.00 0.45 0.00 91 1016.2
20260510121554 67 53 0.0 1.0 0.00 0.45 0.00 91 1016.1
20260510121047 67 0 0.0 0.0 0.00 0.45 0.00 91 1015.8
20260510120546 67 0 0.0 0.0 0.00 0.45 0.00 91 1015.6
20260510120103 67 0 0.0 0.0 0.00 0.45 0.00 91 1015.6
20260510115546 67 0 0.0 0.0 0.00 0.45 0.00 91 1015.6
20260510115050 67 0 0.0 0.0 0.00 0.45 0.00 91 1015.6
20260510114552 67 0 0.0 0.0 0.00 0.45 0.00 91 1015.5
20260510114047 67 0 0.0 3.0 0.00 0.45 0.00 91 1015.4
20260510113550 67 0 0.0 5.0 0.00 0.45 0.00 91 1015.3
20260510113059 66 117 1.0 6.0 0.00 0.45 0.00 91 1015.3
20260510112548 66 65 1.0 6.0 0.00 0.45 0.00 91 1015.3
20260510112047 66 74 3.0 6.0 0.00 0.45 0.00 91 1015.2
20260510111604 66 0 0.0 6.0 0.00 0.45 0.00 91 1015.2
20260510111050 66 49 1.0 7.0 0.00 0.45 0.00 91 1015.1
20260510110547 66 65 2.0 7.0 0.00 0.45 0.00 91 1014.9
20260510110052 66 74 3.0 7.0 0.00 0.45 0.00 91 1014.7
20260510105547 66 85 3.0 7.0 0.00 0.45 0.00 91 1014.6
20260510105047 66 86 2.0 7.0 0.00 0.45 0.00 91 1014.5
20260510104605 66 0 1.0 5.0 0.00 0.45 0.00 91 1014.7
20260510104049 66 56 2.0 5.0 0.00 0.45 0.00 91 1014.7
20260510103548 67 56 2.0 4.0 0.00 0.45 0.00 91 1014.6
20260510103052 67 0 0.0 0.0 0.00 0.45 0.00 91 1014.6
20260510102548 67 0 0.0 0.0 0.00 0.45 0.00 91 1014.5
20260510102048 67 0 0.0 0.0 0.00 0.45 0.00 91 1014.6
20260510101553 67 0 0.0 0.0 0.00 0.45 0.00 91 1014.5
20260510101047 67 0 0.0 0.0 0.00 0.45 0.00 91 1014.6
20260510100551 67 0 0.0 0.0 0.00 0.45 0.00 91 1014.3
20260510100050 67 0 0.0 0.0 0.00 0.45 0.00 91 1014.2
20260510095547 67 0 0.0 3.0 0.00 0.45 0.00 91 1014.2
20260510095051 67 0 0.0 4.0 0.00 0.45 0.00 91 1014.2
20260510094556 67 0 0.0 4.0 0.00 0.45 0.00 91 1014.3
20260510094047 67 69 1.0 4.0 0.00 0.45 0.00 91 1014.2
20260510093548 67 71 0.0 5.0 0.00 0.45 0.00 91 1014.1
20260510093051 67 0 1.0 5.0 0.00 0.45 0.00 91 1014.4
20260510092548 67 73 2.0 6.0 0.00 0.45 0.00 91 1014.3
20260510092052 67 49 2.0 6.0 0.00 0.45 0.00 91 1014.1
20260510091558 67 0 0.0 0.0 0.00 0.45 0.00 91 1014.4
20260510091047 67 0 0.0 3.0 0.00 0.45 0.00 91 1014.6
20260510090547 67 0 0.0 5.0 0.00 0.45 0.00 91 1014.4
20260510085547 67 18 2.0 5.0 0.00 0.45 0.00 91 1014.1
20260510085047 67 70 1.0 5.0 0.00 0.45 0.00 91 1013.7
20260510084558 67 75 2.0 5.0 0.00 0.45 0.00 91 1013.7
20260510084048 67 22 1.0 8.0 0.00 0.45 0.00 91 1014.0
20260510083547 67 26 3.0 8.0 0.00 0.45 0.00 91 1013.8
20260510083106 67 28 3.0 5.0 0.00 0.45 0.00 91 1013.8
20260510082546 67 28 2.0 5.0 0.00 0.45 0.00 91 1013.8
20260510082047 67 17 3.0 5.0 0.00 0.45 0.00 91 1013.6
20260510081556 67 0 0.0 8.0 0.00 0.45 0.00 91 1013.5
20260510081047 67 36 3.0 8.0 0.00 0.45 0.00 91 1013.6
20260510080548 67 24 5.0 8.0 0.00 0.45 0.00 91 1013.5
20260510080056 67 31 3.0 7.0 0.00 0.45 0.00 91 1013.6
20260510075546 67 13 3.0 8.0 0.00 0.45 0.00 90 1013.6
20260510075047 67 11 3.0 8.0 0.00 0.45 0.00 90 1013.6
20260510074547 67 344 3.0 7.0 0.00 0.45 0.00 91 1013.5
20260510074048 67 10 3.0 7.0 0.00 0.45 0.00 90 1013.5
20260510073548 67 11 3.0 5.0 0.00 0.45 0.00 91 1013.5
20260510073056 67 30 2.0 5.0 0.00 0.45 0.00 90 1013.3
20260510072547 67 27 2.0 5.0 0.00 0.45 0.00 90 1013.2
20260510072048 67 0 0.0 8.0 0.00 0.45 0.00 90 1013.1
20260510071550 67 30 3.0 8.0 0.00 0.45 0.00 90 1013.0
20260510071047 67 44 3.0 5.0 0.00 0.45 0.00 90 1013.1
20260510070547 67 34 1.0 5.0 0.00 0.45 0.00 90 1013.1
20260510065547 67 5 1.0 4.0 0.00 0.45 0.00 90 1013.0
20260510065047 67 14 1.0 5.0 0.00 0.45 0.00 90 1013.2
20260510064605 67 20 1.0 5.0 0.00 0.45 0.00 90 1013.2
20260510064047 67 38 2.0 4.0 0.00 0.45 0.00 90 1013.1
20260510063547 67 25 1.0 5.0 0.00 0.45 0.00 90 1013.2
20260510063053 67 0 2.0 5.0 0.00 0.45 0.00 90 1013.3
20260510062550 67 28 3.0 5.0 0.00 0.45 0.00 90 1013.2
20260510062047 67 19 0.0 4.0 0.00 0.45 0.00 90 1013.1
20260510061553 67 44 0.0 4.0 0.00 0.45 0.00 90 1013.1
20260510061048 67 17 2.0 4.0 0.00 0.45 0.00 90 1013.3
20260510060550 67 34 2.0 4.0 0.00 0.45 0.00 90 1013.4
20260510060055 67 37 2.0 4.0 0.00 0.45 0.00 90 1013.5
20260510055548 67 33 1.0 3.0 0.00 0.45 0.00 90 1013.5
20260510055048 67 33 1.0 3.0 0.00 0.45 0.00 90 1013.5
20260510054554 67 0 0.0 0.0 0.00 0.45 0.00 90 1013.4
20260510054046 67 0 0.0 0.0 0.00 0.45 0.00 90 1013.6
20260510053547 67 0 0.0 0.0 0.00 0.45 0.00 90 1013.5
20260510053051 67 0 0.0 3.0 0.00 0.45 0.00 90 1013.7
20260510052547 67 0 0.0 4.0 0.00 0.45 0.00 90 1013.8
20260510052047 67 15 1.0 4.0 0.00 0.45 0.00 89 1013.8
20260510051550 67 15 1.0 3.0 0.00 0.45 0.00 89 1014.0
20260510051050 67 0 0.0 1.0 0.00 0.45 0.00 89 1014.0
20260510050550 67 0 0.0 2.0 0.00 0.45 0.00 89 1013.9
20260510050049 67 0 0.0 2.0 0.00 0.45 0.00 89 1013.7
20260510045548 67 0 0.0 4.0 0.00 0.45 0.45 89 1013.6
20260510045047 67 0 1.0 4.0 0.00 0.45 0.45 89 1013.5
20260510044604 67 82 0.0 5.0 0.00 0.45 0.45 89 1013.5
20260510044047 67 0 2.0 7.0 0.00 0.45 0.45 89 1013.6
20260510043547 67 74 2.0 7.0 0.00 0.45 0.45 89 1013.7
20260510043051 67 71 2.0 6.0 0.00 0.45 0.45 89 1013.5
20260510042548 67 103 1.0 7.0 0.00 0.45 0.45 89 1013.5
20260510042047 67 90 1.0 7.0 0.00 0.45 0.45 89 1013.6
20260510041604 67 86 2.0 7.0 0.00 0.45 0.45 89 1013.6
20260510041048 67 95 3.0 7.0 0.00 0.45 0.45 89 1013.6
20260510040547 67 0 3.0 9.0 0.00 0.45 0.45 89 1013.6
20260510040052 67 93 4.0 9.0 0.00 0.45 0.45 89 1013.6
20260510035547 67 115 1.0 4.0 0.00 0.45 0.45 89 1013.6
20260510035048 67 88 0.0 8.0 0.00 0.45 0.45 89 1013.9
20260510034603 67 0 3.0 8.0 0.00 0.45 0.45 89 1013.8
20260510034047 67 89 2.0 11.0 0.00 0.45 0.45 89 1013.6
20260510033548 67 99 3.0 11.0 0.00 0.45 0.45 89 1013.4
20260510033057 68 75 4.0 9.0 0.00 0.45 0.45 89 1013.1
20260510032547 67 76 2.0 5.0 0.00 0.45 0.45 89 1013.7
20260510032047 68 49 0.0 9.0 0.00 0.45 0.45 89 1014.0
20260510031551 67 59 3.0 10.0 0.00 0.45 0.45 89 1013.9
20260510031046 68 63 5.0 10.0 0.00 0.45 0.45 89 1012.9
20260510030547 68 63 3.0 6.0 0.00 0.45 0.45 89 1013.5
20260510030057 68 55 2.0 6.0 0.00 0.45 0.45 89 1014.3
20260510025548 68 27 4.0 6.0 0.00 0.45 0.45 89 1013.9
20260510025118 68 25 2.0 5.0 0.00 0.45 0.45 89 1014.1
20260510024557 68 39 3.0 6.0 0.00 0.45 0.45 89 1014.4
20260510024049 68 26 3.0 6.0 0.00 0.45 0.45 89 1014.4
20260510023551 68 46 2.0 5.0 0.00 0.45 0.45 88 1014.0
20260510023050 68 72 1.0 3.0 0.00 0.45 0.45 88 1014.3
20260510022547 68 0 0.0 4.0 0.00 0.45 0.45 88 1014.4
20260510022051 68 0 1.0 4.0 0.00 0.45 0.45 88 1014.5
20260510021555 68 73 0.0 5.0 0.00 0.45 0.45 88 1014.4
20260510021046 68 32 1.0 5.0 0.00 0.45 0.45 88 1014.5
20260510020547 68 27 2.0 5.0 0.00 0.45 0.45 88 1014.6
20260510020056 68 327 2.0 6.0 0.00 0.45 0.45 88 1014.8
20260510015547 68 320 3.0 6.0 0.00 0.45 0.45 88 1014.7
20260510015048 68 19 3.0 5.0 0.00 0.45 0.45 88 1014.1
20260510014556 68 293 0.0 5.0 0.00 0.45 0.45 88 1014.3
20260510014048 68 294 1.0 6.0 0.00 0.45 0.45 88 1014.6
20260510013548 68 37 2.0 6.0 0.00 0.45 0.45 88 1013.5
20260510013101 68 38 3.0 5.0 0.00 0.45 0.45 88 1013.8
20260510012548 68 335 1.0 4.0 0.00 0.45 0.45 88 1014.2
20260510012048 68 328 1.0 4.0 0.00 0.45 0.45 88 1014.3
20260510011555 68 0 1.0 4.0 0.00 0.45 0.45 88 1014.0
20260510011047 68 24 2.0 4.0 0.00 0.45 0.45 88 1013.8
20260510010546 68 0 0.0 4.0 0.00 0.45 0.45 88 1013.8
20260510010053 68 0 2.0 5.0 0.00 0.45 0.45 88 1013.7
20260510005547 68 334 1.0 6.0 0.00 0.45 0.45 88 1013.8
20260510005046 68 19 3.0 6.0 0.00 0.45 0.45 88 1013.6
20260510004550 68 325 3.0 5.0 0.00 0.45 0.45 88 1013.6
20260510004047 68 360 3.0 5.0 0.00 0.45 0.45 88 1013.5
20260510003554 68 19 2.0 4.0 0.00 0.45 0.45 88 1013.4
20260510003056 68 22 1.0 5.0 0.00 0.45 0.45 88 1013.2
20260510002546 68 13 2.0 5.0 0.00 0.45 0.45 88 1013.2
20260510002046 68 9 2.0 5.0 0.00 0.45 0.45 88 1013.3
20260510001551 68 12 3.0 5.0 0.00 0.45 0.45 88 1013.2
20260510001053 68 28 2.0 5.0 0.00 0.45 0.45 87 1013.1
20260510000547 68 5 3.0 7.0 0.00 0.45 0.45 87 1013.0
20260510000057 68 34 3.0 7.0 0.00 0.45 0.45 87 1012.9
20260509235548 68 349 3.0 7.0 0.00 0.45 0.45 87 1012.9
20260509235047 68 10 3.0 6.0 0.00 0.45 0.45 87 1012.9
20260509234603 68 70 2.0 6.0 0.00 0.45 0.45 87 1012.8
20260509234047 68 71 3.0 8.0 0.00 0.45 0.45 87 1012.5
20260509233547 68 106 3.0 8.0 0.00 0.45 0.45 87 1012.4
20260509233056 68 111 3.0 10.0 0.00 0.45 0.45 87 1012.3
20260509232547 68 129 3.0 10.0 0.00 0.45 0.45 87 1012.3
20260509232047 68 138 3.0 11.0 0.00 0.45 0.45 88 1012.2
20260509231605 68 119 2.0 11.0 0.00 0.45 0.45 88 1012.2
20260509231050 68 137 4.0 11.0 0.00 0.45 0.45 88 1012.2
20260509230546 68 158 4.0 12.0 0.00 0.45 0.45 88 1012.0
20260509225549 68 108 6.0 12.0 0.00 0.45 0.45 88 1012.1
20260509225047 68 138 5.0 11.0 0.00 0.45 0.45 88 1012.3
20260509224556 68 124 3.0 10.0 0.00 0.45 0.45 88 1012.3
20260509224051 68 161 4.0 13.0 0.00 0.45 0.45 88 1012.1
20260509223549 68 117 5.0 13.0 0.00 0.45 0.45 88 1012.0
20260509223052 68 114 4.0 12.0 0.00 0.45 0.45 88 1012.0
20260509222550 68 107 6.0 12.0 0.00 0.45 0.45 88 1012.0
20260509222048 68 107 3.0 13.0 0.00 0.45 0.45 88 1012.1
20260509221554 68 101 5.0 13.0 0.01 0.45 0.45 88 1012.0
20260509221049 68 137 8.0 13.0 0.01 0.45 0.45 88 1012.0
20260509220546 68 141 4.0 11.0 0.01 0.45 0.45 88 1011.9
20260509220056 68 121 4.0 12.0 0.01 0.45 0.45 88 1011.8
20260509215549 68 138 3.0 12.0 0.01 0.45 0.45 88 1011.8
20260509215047 68 101 5.0 16.0 0.01 0.45 0.45 88 1011.9
20260509214550 68 163 6.0 16.0 0.01 0.45 0.45 89 1011.6
20260509214047 68 143 6.0 16.0 0.01 0.45 0.45 89 1011.6
20260509213548 67 123 7.0 16.0 0.01 0.45 0.45 89 1011.6
20260509213055 67 147 6.0 16.0 0.01 0.45 0.45 89 1011.6
20260509212548 67 120 8.0 16.0 0.01 0.45 0.45 88 1011.5
20260509212049 67 107 6.0 14.0 0.01 0.45 0.45 88 1011.4
20260509211559 67 101 8.0 14.0 0.00 0.44 0.44 88 1011.6
20260509211048 67 113 6.0 12.0 0.01 0.44 0.44 88 1012.0
20260509210550 67 104 7.0 13.0 0.01 0.44 0.44 88 1012.3
20260509210107 67 114 4.0 13.0 0.01 0.44 0.44 88 1012.3
20260509205551 67 109 7.0 11.0 0.02 0.44 0.44 89 1012.2
20260509205047 67 98 6.0 12.0 0.03 0.44 0.44 88 1012.3
20260509204554 67 107 5.0 12.0 0.05 0.44 0.44 89 1012.2
20260509204047 67 84 4.0 11.0 0.07 0.44 0.44 89 1012.3
20260509203550 67 117 6.0 11.0 0.09 0.44 0.44 88 1012.3
20260509203056 67 71 5.0 11.0 0.11 0.44 0.44 88 1012.2
20260509202550 67 82 4.0 11.0 0.13 0.44 0.44 88 1012.5
20260509202049 67 86 3.0 11.0 0.13 0.44 0.44 88 1012.8
20260509201557 67 78 4.0 11.0 0.13 0.44 0.44 88 1012.8
20260509201047 67 84 3.0 7.0 0.12 0.43 0.43 88 1012.9
20260509200547 67 90 2.0 8.0 0.12 0.43 0.43 89 1013.2
20260509195550 66 130 3.0 11.0 0.11 0.42 0.42 88 1013.2
20260509195047 66 106 5.0 11.0 0.10 0.41 0.41 88 1012.7
20260509194552 66 86 5.0 12.0 0.08 0.39 0.39 88 1012.9
20260509194047 66 46 5.0 15.0 0.06 0.37 0.37 88 1012.7
20260509193544 66 34 8.0 15.0 0.04 0.35 0.35 88 1012.8
20260509193057 66 5 6.0 13.0 0.02 0.33 0.33 88 1013.3
20260509192544 66 53 5.0 13.0 0.00 0.31 0.31 88 1013.6
20260509192048 66 24 6.0 13.0 0.00 0.31 0.31 88 1013.6
20260509191556 66 63 6.0 15.0 0.00 0.31 0.31 88 1013.7
20260509191047 66 9 7.0 15.0 0.01 0.31 0.31 88 1014.1
20260509190548 66 34 8.0 15.0 0.01 0.31 0.31 88 1014.3
20260509190107 66 20 7.0 18.0 0.01 0.31 0.31 88 1014.3
20260509185547 66 21 9.0 18.0 0.01 0.31 0.31 88 1014.3
20260509185047 66 11 10.0 14.0 0.01 0.31 0.31 89 1014.4
20260509184557 66 348 8.0 14.0 0.01 0.31 0.31 89 1014.4
20260509184047 66 27 9.0 18.0 0.02 0.31 0.31 89 1014.3
20260509183548 66 360 8.0 18.0 0.03 0.31 0.31 89 1014.3
20260509183056 66 46 8.0 18.0 0.05 0.31 0.31 89 1014.3
20260509182544 66 33 8.0 20.0 0.09 0.31 0.31 89 1014.5
20260509182047 66 5 11.0 20.0 0.12 0.31 0.31 89 1014.3
20260509181550 66 62 9.0 17.0 0.16 0.31 0.31 89 1014.4
20260509181047 66 360 11.0 16.0 0.19 0.30 0.30 89 1014.4
20260509180549 66 22 10.0 16.0 0.26 0.30 0.30 89 1014.3
20260509175548 66 9 9.0 16.0 0.28 0.30 0.30 89 1014.5
20260509175048 66 20 10.0 16.0 0.28 0.30 0.30 88 1014.9
20260509174555 66 5 6.0 15.0 0.28 0.30 0.30 88 1015.0
20260509174046 65 360 8.0 15.0 0.28 0.29 0.29 88 1015.2
20260509173546 65 10 9.0 18.0 0.27 0.28 0.28 88 1015.1
20260509173056 65 28 10.0 18.0 0.25 0.26 0.26 88 1015.3
20260509172547 66 27 9.0 21.0 0.21 0.21 0.21 87 1015.3
20260509172047 66 11 10.0 22.0 0.19 0.19 0.19 87 1015.1
20260509171555 66 9 12.0 22.0 0.14 0.14 0.14 86 1015.0
20260509171046 67 360 12.0 25.0 0.11 0.11 0.11 86 1015.1
20260509170546 67 25 11.0 25.0 0.04 0.04 0.04 85 1015.0
20260509165547 69 334 9.0 17.0 0.02 0.02 0.02 85 1014.7
20260509165046 70 42 9.0 17.0 0.02 0.02 0.02 84 1014.6
20260509164554 71 360 7.0 14.0 0.02 0.02 0.02 84 1014.5
20260509164049 72 71 8.0 14.0 0.01 0.01 0.01 84 1014.1
20260509163547 73 40 6.0 11.0 0.01 0.01 0.01 84 1014.2
20260509163106 73 360 5.0 11.0 0.01 0.01 0.01 84 1014.2
20260509162548 74 5 5.0 10.0 0.00 0.00 0.00 85 1014.2
20260509162047 74 58 2.0 5.0 0.00 0.00 0.00 85 1013.9
20260509161557 74 0 0.0 6.0 0.00 0.00 0.00 85 1014.2
20260509161051 74 82 2.0 8.0 0.00 0.00 0.00 85 1014.2
20260509160547 74 98 2.0 9.0 0.00 0.00 0.00 85 1014.1
20260509160058 74 67 3.0 9.0 0.00 0.00 0.00 85 1014.1
20260509155547 74 88 2.0 8.0 0.00 0.00 0.00 84 1014.0
20260509155049 74 82 2.0 8.0 0.00 0.00 0.00 84 1013.9
20260509154606 74 98 3.0 8.0 0.00 0.00 0.00 84 1013.9
20260509154046 74 103 4.0 8.0 0.00 0.00 0.00 84 1013.9
20260509153547 74 104 3.0 7.0 0.00 0.00 0.00 84 1013.9
20260509153056 74 107 2.0 6.0 0.00 0.00 0.00 83 1014.0
20260509152547 74 111 1.0 4.0 0.00 0.00 0.00 84 1014.1
20260509152045 73 111 1.0 4.0 0.00 0.00 0.00 84 1014.1
20260509151610 73 0 2.0 4.0 0.00 0.00 0.00 84 1013.9